Wind_Speed
4 3 4 6 6 5 4 3 2 1 1 2 2 2 3 3 3 4 3 1 0 1 3 6 7 9 11 8 6 5 2 4 8 9 13 13 12 11 11 13 14 15 15
3 4 5 7 5 4 3 2 1 0 1 2 2 2 2 2 3 2 2 2 3 4 5 6 7 7 8 7 6 4 2 5 7 9 12 13 11 10 10 12 14 14 13
3 4 5 5 4 4 2 1 1 1 2 2 2 2 2 2 2 2 2 3 4 6 6 7 7 7 5 6 6 4 2 5 7 9 11 11 10 10 10 11 12 12 11
4 4 4 4 4 3 3 3 2 2 3 4 4 4 4 4 4 4 4 5 5 6 6 4 7 7 6 4 5 3 2 6 8 10 11 13 10 10 10 9 9 11 10
5 4 4 4 5 5 5 5 4 4 4 5 5 6 6 5 5 6 5 5 6 5 6 7 6 6 6 6 4 3 1 6 9 10 11 13 10 10 8 5 7 10 9
9 7 6 5 6 7 8 7 7 7 7 8 8 8 8 7 6 7 8 7 8 8 8 7 5 3 6 5 4 3 0 5 8 11 12 15 14 11 5 5 6 7 8
7 7 7 7 8 9 9 10 11 10 11 10 10 10 10 10 10 10 9 10 10 10 9 8 5 4 4 5 3 2 1 4 8 11 15 18 14 11 11 6 2 3 4
10 10 11 11 12 12 13 14 15 15 16 16 16 16 15 14 13 13 12 11 11 11 11 9 7 4 2 3 3 3 2 3 8 11 15 19 19 15 13 9 4 3 4
13 13 13 14 15 16 16 17 18 18 19 19 20 19 19 18 17 17 16 13 12 13 12 11 9 7 5 4 2 2 2 3 7 12 15 19 22 19 13 10 7 5 3
11 11 12 12 13 13 13 14 14 15 16 17 19 20 20 20 21 20 19 18 16 14 14 13 12 11 8 7 5 4 4 4 6 11 15 18 19 18 16 13 13 11 8
11 11 11 11 12 12 13 14 14 15 15 16 16 16 18 20 22 22 22 22 20 17 15 15 15 13 11 9 8 7 6 5 7 11 15 18 18 17 17 13 16 14 11
10 10 10 11 11 11 12 13 15 15 15 15 16 16 16 17 19 20 21 22 21 20 19 16 16 15 13 12 11 10 8 7 8 11 15 18 18 17 17 17 16 15 13
12 12 12 12 12 12 13 13 14 15 16 16 16 18 19 19 19 19 19 21 22 22 23 21 19 17 16 16 15 13 12 11 10 10 14 19 21 15 17 16 21 17 15
15 15 16 16 16 16 16 15 16 17 17 17 17 17 18 20 21 21 21 20 20 22 24 24 23 21 20 19 18 17 16 15 13 12 13 16 24 23 17 19 21 19 17
20 20 20 20 20 20 20 19 19 19 19 19 19 18 19 20 21 22 23 23 23 22 22 24 27 25 24 23 21 21 20 19 19 17 16 17 19 26 24 23 21 20 18
25 25 25 25 24 23 24 24 23 23 23 23 23 23 22 22 23 23 23 24 25 25 24 23 25 28 29 27 26 25 24 24 23 22 20 20 19 20 25 27 26 25 25
28 29 29 29 29 28 27 28 28 27 27 27 27 27 27 26 25 25 25 26 27 27 26 25 25 27 30 32 32 30 26 27 27 26 26 25 22 22 22 23 25 26 25
28 30 30 31 31 31 30 31 32 32 31 30 31 31 31 31 30 29 28 28 28 28 29 29 27 28 29 32 35 36 35 32 29 30 30 29 28 27 28 28 27 26 26
30 32 33 34 33 33 32 33 34 36 36 35 35 35 35 35 35 34 32 31 32 31 30 29 30 31 30 30 31 35 36 39 38 35 33 34 33 32 32 31 30 29 29
35 35 36 37 37 37 37 36 37 38 40 40 39 39 39 39 39 38 37 36 35 34 34 33 32 32 32 33 34 35 36 37 39 40 39 36 36 35 35 35 34 33 30
37 37 38 38 39 39 38 38 39 40 42 43 44 43 42 42 42 43 41 40 40 39 38 37 37 35 34 34 35 35 37 38 37 40 39 37 38 37 36 35 35 36 34
34 34 35 35 35 35 35 34 36 39 42 44 45 46 46 46 45 45 45 44 44 44 42 42 41 40 39 37 37 37 38 37 39 38 39 40 40 38 39 38 38 37 36
32 32 33 33 33 33 34 35 36 38 40 43 44 46 48 49 49 49 49 48 47 47 47 46 46 46 44 42 41 41 39 38 38 36 39 41 39 41 42 41 40 39 39
32 32 32 33 34 35 37 38 39 39 40 42 43 44 45 47 51 53 53 53 53 52 52 50 49 49 49 48 46 44 42 41 39 40 38 39 40 41 41 41 41 43 43
34 35 37 38 40 41 42 43 43 43 45 46 47 48 48 48 48 50 53 57 59 58 57 56 53 52 52 53 50 50 47 46 44 43 41 38 38 38 39 40 42 43 43
37 38 39 41 44 46 48 51 53 55 57 57 56 56 56 54 52 52 53 55 57 61 63 62 59 58 56 55 55 53 53 51 48 45 45 41 39 39 38 40 41 41 41
Wind_Direction
90 79 105 132 150 151 152 156 148 117 81 42 39 33 23 24 32 39 62 83 194 280 300 316 335 339 339 356 11 21 79 133 150 150 155 151 149 151 145 149 154 153 145
106 105 116 127 130 144 162 166 181 211 9 7 11 10 12 11 8 10 12 360 336 329 329 330 339 345 347 356 7 36 114 142 154 158 160 161 164 159 156 153 159 164 169
134 128 123 132 142 159 168 177 214 268 291 296 303 320 332 345 345 339 328 318 317 314 317 324 338 349 357 352 5 21 114 148 156 162 163 164 164 161 162 154 161 164 173
159 153 139 151 181 179 188 196 218 258 276 290 295 303 308 313 314 311 310 307 314 323 333 336 342 348 360 13 2 11 155 166 165 165 165 166 158 149 152 154 164 166 172
182 180 172 189 205 214 218 225 243 259 271 282 293 294 296 295 290 292 296 302 304 312 321 327 336 348 5 9 14 16 190 182 172 167 163 152 142 139 173 174 168 169 163
172 184 186 197 218 218 224 236 241 250 255 255 262 274 281 286 287 279 278 284 292 297 302 309 315 332 352 358 3 11 339 195 185 174 165 155 156 167 213 167 161 163 163
192 201 207 221 225 236 237 237 244 253 261 265 268 270 275 278 275 275 272 276 281 288 292 296 290 295 324 343 344 346 317 200 197 185 171 160 152 163 181 192 206 179 177
225 220 221 226 228 233 241 246 249 251 255 260 264 268 270 269 271 271 273 274 273 278 282 283 279 276 297 320 323 311 274 212 198 197 185 173 162 171 199 212 241 157 171
220 223 223 227 232 235 239 246 251 253 254 256 257 258 261 264 266 267 269 271 271 267 272 271 266 262 262 259 270 269 264 233 207 199 195 187 185 187 198 198 165 132 167
220 227 229 228 230 235 240 242 247 257 261 263 262 259 256 257 260 262 265 267 266 264 262 265 259 258 249 245 250 239 229 224 211 207 197 191 188 190 191 192 171 180 180
226 234 241 246 250 251 250 250 251 249 251 256 258 260 261 259 258 259 260 260 260 259 261 262 261 256 252 247 248 248 229 220 214 206 205 191 188 198 204 199 191 189 192
234 237 242 248 254 258 261 262 259 251 251 252 253 255 255 257 259 259 259 257 254 252 255 256 259 256 253 250 247 247 238 235 222 212 205 202 198 215 213 207 209 207 212
241 248 251 252 254 259 264 266 267 264 261 259 261 266 265 258 256 256 257 258 256 251 250 250 252 253 247 243 243 244 240 238 240 225 216 208 211 214 220 222 189 212 228
249 250 252 256 261 260 261 263 265 268 267 267 266 262 259 265 264 259 255 254 254 252 249 250 247 249 250 247 243 241 241 239 241 234 230 220 208 220 230 213 220 227 242
259 259 259 258 257 258 259 261 263 263 267 269 267 264 264 260 259 263 261 257 253 250 246 245 249 249 248 248 244 241 239 239 240 236 228 230 221 220 233 238 237 243 254
265 268 269 268 265 262 262 261 260 260 263 263 264 264 260 260 261 258 259 260 259 254 249 244 241 246 249 249 249 243 240 240 239 238 232 226 227 225 231 240 244 252 254
263 265 267 267 266 266 263 262 263 263 260 260 261 262 262 262 260 260 260 260 262 261 259 251 245 243 242 246 248 248 246 243 242 240 238 234 230 230 228 234 243 246 250
264 264 265 266 266 265 264 263 261 262 262 263 262 261 261 261 261 261 262 262 261 261 261 259 255 250 248 246 247 247 248 246 244 242 240 240 237 236 235 235 239 245 249
263 264 265 265 264 263 263 261 260 260 260 259 261 262 261 260 260 261 260 261 263 263 260 259 257 255 252 253 251 247 245 247 247 245 244 242 242 240 241 243 239 244 249
267 266 266 265 265 263 260 260 259 258 259 260 259 259 262 262 261 260 259 259 260 262 263 262 259 258 257 256 255 254 253 252 246 246 245 245 246 245 244 246 250 250 253
269 268 268 267 267 265 262 260 259 257 257 258 259 260 260 260 262 263 262 260 260 260 260 262 262 259 258 256 257 256 255 256 255 249 247 246 246 247 246 246 248 251 253
273 273 271 270 267 266 264 263 262 259 258 256 255 256 258 260 261 260 262 262 262 261 260 260 260 260 258 256 256 256 254 255 254 255 254 250 247 248 249 249 249 251 252
274 275 274 274 273 272 271 271 272 268 263 257 257 256 256 257 258 259 260 260 260 261 260 258 260 259 258 256 254 255 257 255 255 254 255 255 253 250 249 249 250 252 253
278 279 279 279 278 278 277 277 276 273 266 264 263 260 260 259 257 257 258 259 258 258 259 259 258 258 258 255 254 251 253 256 256 257 251 253 254 254 253 251 250 250 251
284 286 287 289 291 292 292 291 287 282 278 273 271 268 266 266 266 264 261 258 259 260 258 258 257 258 258 257 253 253 250 251 252 254 255 254 254 256 256 255 254 252 252
290 292 294 294 295 295 295 293 292 290 287 284 279 274 272 269 268 270 271 269 265 262 261 258 256 256 256 256 255 252 251 249 250 251 254 253 254 252 253 254 254 254 253
Height
3179 3178 3179 3179 3180 3181 3181 3181 3182 3182 3182 3182 3181 3181 3181 3181 3180 3180 3180 3180 3180 3179 3179 3178 3178 3176 3174 3173 3172 3172 3171 3171 3171 3171 3173 3174 3175 3176 3177 3178 3179 3180 3181
3180 3180 3180 3181 3181 3181 3182 3182 3182 3182 3182 3182 3182 3182 3182 3181 3181 3181 3180 3180 3180 3180 3179 3178 3177 3177 3175 3173 3172 3172 3172 3172 3172 3173 3174 3175 3176 3177 3178 3178 3179 3181 3182
3181 3181 3181 3182 3182 3182 3183 3183 3183 3183 3183 3183 3183 3183 3183 3182 3182 3182 3181 3181 3180 3180 3179 3178 3177 3177 3176 3174 3173 3172 3172 3172 3173 3173 3174 3175 3176 3177 3178 3179 3180 3181 3182
3181 3181 3181 3182 3182 3182 3182 3182 3183 3183 3183 3183 3182 3183 3182 3182 3181 3181 3181 3181 3180 3180 3179 3179 3178 3177 3176 3175 3174 3173 3172 3172 3173 3174 3174 3175 3177 3178 3179 3180 3181 3182 3183
3181 3181 3181 3181 3181 3182 3182 3182 3182 3183 3183 3182 3182 3182 3182 3181 3181 3181 3181 3180 3180 3179 3179 3179 3178 3177 3176 3175 3174 3173 3173 3173 3173 3174 3175 3176 3178 3179 3180 3181 3181 3182 3183
3180 3180 3180 3180 3181 3181 3181 3181 3181 3182 3182 3182 3182 3182 3181 3181 3181 3181 3180 3180 3179 3179 3179 3178 3178 3177 3176 3174 3174 3173 3173 3173 3173 3174 3175 3177 3179 3179 3181 3181 3182 3183 3183
3180 3180 3181 3181 3181 3181 3181 3181 3181 3181 3181 3181 3181 3180 3180 3180 3180 3180 3179 3179 3179 3178 3178 3177 3177 3177 3176 3175 3174 3173 3173 3173 3174 3175 3175 3177 3178 3179 3180 3181 3182 3183 3184
3177 3177 3177 3177 3178 3178 3179 3179 3179 3180 3180 3179 3179 3179 3179 3179 3178 3178 3178 3178 3178 3177 3177 3177 3176 3177 3176 3175 3174 3174 3173 3173 3173 3175 3176 3177 3178 3179 3180 3181 3182 3183 3184
3175 3175 3175 3175 3175 3175 3175 3175 3175 3175 3175 3176 3176 3177 3176 3177 3176 3176 3175 3176 3176 3175 3175 3175 3175 3175 3176 3175 3174 3174 3173 3173 3173 3173 3175 3176 3178 3179 3180 3181 3182 3183 3184
3174 3174 3174 3174 3174 3173 3173 3173 3173 3174 3173 3173 3172 3172 3173 3172 3172 3173 3173 3173 3173 3174 3173 3173 3174 3173 3174 3174 3173 3173 3172 3172 3172 3173 3174 3176 3177 3179 3179 3180 3181 3182 3183
3173 3173 3173 3173 3173 3173 3172 3172 3171 3170 3169 3169 3169 3168 3169 3169 3169 3168 3168 3169 3170 3171 3171 3171 3171 3172 3172 3172 3171 3172 3171 3171 3171 3171 3173 3174 3176 3177 3178 3179 3180 3181 3182
3173 3172 3171 3171 3171 3171 3170 3170 3169 3169 3168 3167 3166 3165 3165 3164 3164 3165 3165 3165 3166 3167 3168 3168 3168 3169 3170 3170 3170 3170 3170 3170 3170 3170 3171 3173 3175 3175 3176 3177 3179 3180 3181
3172 3172 3171 3170 3169 3168 3168 3167 3166 3166 3165 3165 3164 3165 3164 3162 3161 3160 3160 3161 3162 3163 3163 3165 3165 3166 3167 3167 3168 3168 3168 3168 3169 3169 3169 3171 3173 3173 3173 3173 3175 3177 3179
3168 3168 3168 3167 3167 3166 3165 3165 3164 3163 3162 3161 3161 3160 3160 3160 3160 3158 3157 3156 3156 3158 3159 3160 3161 3162 3163 3164 3164 3165 3166 3166 3167 3167 3167 3168 3170 3171 3172 3173 3175 3176 3177
3164 3164 3164 3164 3163 3162 3162 3161 3161 3160 3159 3158 3157 3156 3156 3155 3155 3156 3155 3153 3152 3152 3153 3156 3157 3157 3158 3159 3161 3161 3162 3163 3164 3164 3164 3165 3166 3168 3169 3171 3172 3173 3173
3161 3160 3159 3159 3159 3158 3157 3156 3156 3155 3155 3154 3153 3152 3151 3151 3151 3150 3151 3151 3150 3148 3148 3150 3151 3152 3153 3154 3155 3156 3158 3159 3160 3161 3160 3162 3162 3163 3165 3167 3168 3169 3170
3155 3154 3153 3152 3152 3152 3152 3152 3151 3151 3149 3149 3148 3147 3147 3147 3146 3146 3146 3146 3146 3146 3146 3146 3147 3146 3147 3148 3149 3151 3151 3153 3153 3155 3156 3157 3159 3160 3161 3163 3164 3165 3166
3150 3148 3147 3146 3146 3145 3145 3145 3145 3144 3144 3144 3143 3141 3141 3141 3141 3141 3141 3141 3140 3141 3142 3142 3142 3142 3142 3142 3143 3144 3145 3146 3148 3149 3150 3152 3154 3155 3157 3158 3159 3160 3160
3143 3142 3141 3140 3139 3139 3138 3138 3137 3137 3136 3135 3135 3135 3135 3134 3134 3135 3135 3135 3135 3135 3135 3136 3137 3136 3137 3137 3138 3137 3137 3139 3141 3143 3144 3146 3148 3150 3152 3153 3154 3155 3156
3136 3135 3134 3133 3132 3132 3131 3130 3129 3129 3128 3128 3127 3126 3127 3127 3127 3127 3128 3128 3128 3129 3130 3130 3131 3130 3131 3131 3130 3130 3131 3132 3133 3134 3137 3140 3141 3143 3145 3146 3148 3149 3150
3128 3127 3125 3124 3122 3122 3122 3121 3120 3120 3119 3119 3118 3118 3117 3117 3118 3119 3119 3120 3120 3121 3122 3123 3123 3124 3124 3124 3123 3124 3124 3124 3125 3126 3129 3132 3134 3136 3137 3138 3140 3142 3144
3119 3118 3117 3115 3114 3113 3112 3112 3112 3111 3110 3109 3108 3108 3108 3107 3108 3108 3109 3111 3111 3111 3113 3113 3114 3115 3116 3117 3116 3116 3115 3118 3118 3120 3122 3123 3125 3128 3129 3131 3133 3134 3136
3111 3109 3108 3106 3105 3104 3103 3102 3102 3102 3100 3100 3099 3098 3097 3097 3097 3097 3097 3099 3101 3101 3102 3103 3104 3105 3106 3108 3108 3108 3108 3109 3109 3112 3113 3114 3117 3118 3120 3123 3125 3126 3128
3103 3101 3100 3098 3097 3095 3094 3093 3091 3090 3090 3089 3088 3087 3087 3085 3086 3085 3084 3085 3087 3089 3090 3092 3093 3093 3095 3097 3099 3099 3100 3101 3102 3102 3104 3106 3108 3110 3112 3114 3116 3118 3120
3095 3094 3092 3089 3086 3083 3081 3079 3078 3078 3077 3075 3074 3073 3074 3073 3072 3072 3071 3072 3072 3074 3076 3078 3081 3082 3083 3084 3088 3089 3089 3090 3092 3093 3095 3099 3100 3101 3103 3105 3106 3108 3110
3088 3084 3082 3080 3077 3074 3071 3069 3065 3062 3060 3058 3059 3058 3057 3058 3059 3059 3058 3057 3057 3059 3059 3062 3065 3067 3070 3071 3074 3077 3078 3079 3082 3085 3086 3089 3091 3092 3094 3095 3097 3099 3101